Regional Weather Roundup
Issued by NWS Cleveland, OH

Home | Current Version | Previous Version | Graphics & Text | Print | Product List | Glossary On
Versions: 1 2 3 4 5 6 7 8 9 10 11 12 13 14 15 16 17 18 19 20 21 22 23 24 25 26 27 28 29 30 31 32 33 34 35 36 37 38 39 40 41 42 43 44 45 46 47 48 49 50
000
ASUS41 KCLE 151810
RWRCLE
OHIO REGIONAL WEATHER ROUNDUP
NATIONAL WEATHER SERVICE WILMINGTON, OH
100 PM EST FRI DEC 15 2017

NOTE: "FAIR" INDICATES FEW OR NO CLOUDS BELOW 12,000 FEET WITH NO
SIGNIFICANT WEATHER AND/OR OBSTRUCTIONS TO VISIBILITY.

OHZ001>008-015>018-024>027-034-035-043-044-151900-
   NORTHWEST OHIO

CITY           SKY/WX    TMP DP  RH WIND       PRES   REMARKS
DEFIANCE       LGT SNOW  26  19  74 SW10G22   29.88F WCI  16
FINDLAY        LGT SNOW  26  20  77 W17       29.88F WCI  13
TOLEDO EXPRESS CLOUDY    26  21  81 SW18G26   29.85F WCI  13
TOLEDO EXEC    LGT SNOW  26  20  77 SW14G25   29.86F WCI  14
LIMA           LGT SNOW  26  21  81 SW17      29.89F WCI  13
$$

OHZ009>014-019>023-028>033-038-089-151900-
   NORTHEAST OHIO

CITY           SKY/WX    TMP DP  RH WIND       PRES   REMARKS
CLE-HOPKINS    CLOUDY    26  13  57 SW16      29.88F WCI  14
CLE-LAKEFRONT  CLOUDY    26  12  55 S21G26    29.86F WCI  12
CUY CO. ARPT   CLOUDY    27  19  74 S12G21    29.85F WCI  16
LORAIN-ELYRIA  CLOUDY    25  12  58 SW17      29.87F WCI  12
ASHTABULA      CLOUDY    20  11  68 S14       29.86F WCI   7
AKRON-CANTON   CLOUDY    23  12  62 SW13      29.87F WCI  11
WOOSTER        CLOUDY    24  14  65 SW12      29.87F WCI  13
MANSFIELD      CLOUDY    25  16  68 SW18G25   29.86F WCI  11
YOUNGSTOWN     CLOUDY    23  11  60 SW15      29.86F WCI  10
$$

OHZ042-051>053-060>062-070>072-077>081-151900-
  SOUTHWEST OHIO

CITY           SKY/WX    TMP DP  RH WIND       PRES   REMARKS
CINC-COVINGTON CLOUDY    31  20  63 W14       30.00F WCI  21
CINC-LUNKEN    CLOUDY    33  20  58 SW15      30.03F WCI  23
HAMILTON       CLOUDY    32  20  61 W12       30.01F WCI  23
DAYTON         CLOUDY    28  20  71 W22G29    29.95F WCI  14
WRIGHT-PAT AFB CLOUDY    29  20  67 SW16G23   29.95F WCI  18
DAYTON GENERAL CLOUDY    29  18  63 SW10G22   29.96F WCI  20
WILMINGTON     CLOUDY    30  19  63 SW16      29.95F WCI  19
$$

OHZ036-037-039>041-045>050-054>059-063>069-073>076-082>088-151900-
  CENTRAL AND SOUTHEAST OHIO

CITY           SKY/WX    TMP DP  RH WIND       PRES   REMARKS
COLUMBUS       CLOUDY    30  17  58 SW13      29.94F WCI  20
OSU AIRPORT    CLOUDY    29  19  66 SW16G28   29.93F WCI  17
BOLTON FIELD   CLOUDY    30  18  59 SW13G25   29.95F WCI  20
RICKENBACK AFB PTSUNNY   31  17  55 SW16G25   29.95F WCI  20
NEWARK         CLOUDY    28  17  63 SW15      29.93F WCI  16
MARION         NOT AVBL
LANCASTER      CLOUDY    29  16  58 SW10G21   29.96F WCI  20
ZANESVILLE     CLOUDY    29  15  56 VRB6      29.94F WCI  23
NEW PHILLY     CLOUDY    26  13  57 SW9       29.92F WCI  17
$$




USA.gov is the U.S. government's official web portal to all federal, state and local government web resources and services.